When you browse on this site, cookies collect data to enhance your experience and personalize the content and advertising you see.
Visit our Privacy Policy to learn more. By continuing to use the site, you agree to this use of cookies and data.
  • In Slovakia
  • List of Countries
  • For 7 days
  • Water Temperature
  • Weather Map
  • Weather Widgets
  • user-avatar
    Login

    Hourly Weather Tibissa

    Today, 6 December, Friday

    Time Temperature Precipitation Wind Pressure Humidity
    00:00 +8°C° 0 mm 0 mps 687 mmHg 68%
    01:00 +8°C° 0 mm 0 mps 688 mmHg 68%
    02:00 +8°C° 0 mm 0 mps 687 mmHg 69%
    03:00 +8°C° 0 mm 0 mps 687 mmHg 69%
    04:00 +7°C° 0 mm 0 mps 687 mmHg 70%
    05:00 +7°C° 0 mm 0 mps 687 mmHg 70%
    06:00 +7°C° 0 mm 0 mps 687 mmHg 71%
    07:00 +6°C° 0 mm 0 mps 687 mmHg 72%
    08:00 +9°C° 0 mm 1 mps 688 mmHg 63%
    09:00 +11°C° 0 mm 1 mps 689 mmHg 55%
    10:00 +13°C° 0 mm 1 mps 689 mmHg 46%
    11:00 +14°C° 0 mm 1 mps 689 mmHg 42%
    12:00 +15°C° 0 mm 1 mps 689 mmHg 38%
    13:00 +16°C° 0 mm 2 mps 689 mmHg 34%
    14:00 +16°C° 0 mm 2 mps 689 mmHg 34%
    15:00 +16°C° 0 mm 2 mps 689 mmHg 34%
    16:00 +16°C° 0 mm 2 mps 688 mmHg 34%
    17:00 +14°C° 0 mm 2 mps 688 mmHg 40%
    18:00 +12°C° 0 mm 1 mps 688 mmHg 46%
    19:00 +11°C° 0 mm 1 mps 688 mmHg 52%
    20:00 +10°C° 0 mm 1 mps 688 mmHg 54%
    21:00 +10°C° 0 mm 1 mps 688 mmHg 55%
    22:00 +9°C° 0 mm 1 mps 688 mmHg 56%
    23:00 +8°C° 0 mm 0 mps 688 mmHg 56%

    Tomorrow, 7 December, Saturday

    Time Temperature Precipitation Wind Pressure Humidity
    00:00 +8°C° 0 mm 0 mps 688 mmHg 55%
    01:00 +7°C° 0 mm 0 mps 687 mmHg 55%
    02:00 +7°C° 0 mm 0 mps 687 mmHg 53%
    03:00 +7°C° 0 mm 0 mps 687 mmHg 52%
    04:00 +7°C° 0 mm 0 mps 687 mmHg 51%
    05:00 +7°C° 0 mm 0 mps 687 mmHg 50%
    06:00 +7°C° 0 mm 0 mps 687 mmHg 49%
    07:00 +8°C° 0 mm 1 mps 687 mmHg 47%
    08:00 +9°C° 0 mm 0 mps 688 mmHg 42%
    09:00 +11°C° 0 mm 0 mps 688 mmHg 36%
    10:00 +14°C° 0 mm 0 mps 689 mmHg 31%
    11:00 +15°C° 0 mm 0 mps 689 mmHg 30%
    12:00 +16°C° 0 mm 1 mps 689 mmHg 30%
    13:00 +18°C° 0 mm 1 mps 689 mmHg 29%
    14:00 +18°C° 0 mm 1 mps 688 mmHg 31%
    15:00 +18°C° 0 mm 1 mps 688 mmHg 34%
    16:00 +18°C° 0 mm 1 mps 688 mmHg 36%
    17:00 +16°C° 0 mm 1 mps 687 mmHg 42%
    18:00 +14°C° 0 mm 1 mps 687 mmHg 47%
    19:00 +13°C° 0 mm 1 mps 687 mmHg 53%
    20:00 +12°C° 0 mm 1 mps 687 mmHg 55%
    21:00 +12°C° 0 mm 1 mps 688 mmHg 57%
    22:00 +10°C° 0 mm 0 mps 688 mmHg 59%
    23:00 +11°C° 0 mm 1 mps 688 mmHg 58%

    Day after tomorrow, 8 December, Sunday

    Time Temperature Precipitation Wind Pressure Humidity
    00:00 +11°C° 0 mm 1 mps 688 mmHg 57%
    01:00 +9°C° 0 mm 2 mps 687 mmHg 57%
    02:00 +9°C° 0 mm 2 mps 687 mmHg 59%
    03:00 +8°C° 0 mm 2 mps 687 mmHg 60%
    04:00 +8°C° 0 mm 2 mps 687 mmHg 62%
    05:00 +7°C° 0 mm 2 mps 687 mmHg 65%
    06:00 +8°C° 0 mm 1 mps 687 mmHg 68%
    07:00 +8°C° 0 mm 1 mps 687 mmHg 71%
    08:00 +8°C° 0 mm 2 mps 688 mmHg 67%
    09:00 +9°C° 0 mm 2 mps 689 mmHg 62%
    10:00 +11°C° 0 mm 3 mps 690 mmHg 57%
    11:00 +12°C° 0 mm 3 mps 689 mmHg 54%
    12:00 +12°C° 0 mm 3 mps 689 mmHg 52%
    13:00 +13°C° 0 mm 4 mps 689 mmHg 49%
    14:00 +13°C° 0 mm 4 mps 689 mmHg 49%
    15:00 +13°C° 0 mm 4 mps 689 mmHg 49%
    16:00 +13°C° 0 mm 5 mps 689 mmHg 49%
    17:00 +12°C° 0 mm 4 mps 689 mmHg 57%
    18:00 +10°C° 0 mm 3 mps 689 mmHg 65%
    19:00 +9°C° 0 mm 2 mps 689 mmHg 73%
    20:00 +9°C° 0 mm 2 mps 689 mmHg 76%
    21:00 +9°C° 0 mm 1 mps 689 mmHg 80%
    22:00 +9°C° 0 mm 1 mps 689 mmHg 84%
    23:00 +9°C° 0 mm 1 mps 689 mmHg 84%

    9 December, Monday

    Time Temperature Precipitation Wind Pressure Humidity
    00:00 +8°C° 0 mm 1 mps 689 mmHg 84%
    01:00 +7°C° 0 mm 2 mps 689 mmHg 84%
    02:00 +7°C° 0 mm 2 mps 689 mmHg 83%
    03:00 +7°C° 0 mm 2 mps 689 mmHg 82%
    04:00 +7°C° 0 mm 2 mps 688 mmHg 81%
    05:00 +6°C° 0 mm 2 mps 688 mmHg 80%
    06:00 +6°C° 0 mm 2 mps 688 mmHg 78%
    07:00 +6°C° 0 mm 2 mps 688 mmHg 77%
    08:00 +8°C° 0 mm 3 mps 689 mmHg 69%
    09:00 +8°C° 0 mm 4 mps 689 mmHg 60%
    10:00 +11°C° 0 mm 4 mps 690 mmHg 52%
    11:00 +12°C° 0 mm 5 mps 690 mmHg 50%
    12:00 +12°C° 0 mm 5 mps 690 mmHg 48%
    13:00 +13°C° 0 mm 6 mps 689 mmHg 46%
    14:00 +13°C° 0 mm 6 mps 689 mmHg 48%
    15:00 +13°C° 0 mm 6 mps 689 mmHg 51%
    16:00 +12°C° 0 mm 5 mps 688 mmHg 53%
    17:00 +10°C° 0 mm 5 mps 688 mmHg 58%
    18:00 +11°C° 0 mm 4 mps 688 mmHg 62%
    19:00 +10°C° 0 mm 3 mps 688 mmHg 66%
    20:00 +9°C° 0 mm 3 mps 688 mmHg 68%
    21:00 +9°C° 0 mm 3 mps 688 mmHg 71%
    22:00 +9°C° 0 mm 3 mps 688 mmHg 73%
    23:00 +8°C° 0 mm 3 mps 688 mmHg 73%

    10 December, Tuesday

    Time Temperature Precipitation Wind Pressure Humidity
    00:00 +8°C° 0 mm 3 mps 688 mmHg 72%
    01:00 +8°C° 0 mm 3 mps 687 mmHg 72%
    02:00 +7°C° 0 mm 4 mps 687 mmHg 72%
    03:00 +7°C° 0 mm 5 mps 687 mmHg 72%
    04:00 +6°C° 0 mm 5 mps 686 mmHg 73%
    05:00 +5°C° 0 mm 6 mps 686 mmHg 76%
    06:00 +4°C° 0 mm 6 mps 686 mmHg 79%
    07:00 +4°C° 0 mm 7 mps 686 mmHg 82%
    08:00 +5°C° 0 mm 9 mps 686 mmHg 77%
    09:00 +6°C° 0 mm 10 mps 687 mmHg 73%
    10:00 +7°C° 0 mm 12 mps 687 mmHg 69%
    11:00 +7°C° 0 mm 12 mps 687 mmHg 67%
    12:00 +8°C° 0 mm 12 mps 687 mmHg 64%
    13:00 +9°C° 0 mm 12 mps 686 mmHg 62%
    14:00 +8°C° 0 mm 12 mps 686 mmHg 64%
    15:00 +8°C° 0 mm 12 mps 686 mmHg 66%
    16:00 +7°C° 0 mm 12 mps 686 mmHg 68%
    17:00 +7°C° 0.1 mm 11 mps 686 mmHg 72%
    18:00 +6°C° 0.1 mm 11 mps 686 mmHg 77%
    19:00 +4°C° 0.1 mm 11 mps 686 mmHg 82%
    20:00 +4°C° 0.1 mm 12 mps 686 mmHg 82%
    21:00 +4°C° 0.1 mm 13 mps 687 mmHg 82%
    22:00 +4°C° 0.1 mm 14 mps 687 mmHg 81%
    23:00 +3°C° 0 mm 13 mps 687 mmHg 82%

    11 December, Wednesday

    Time Temperature Precipitation Wind Pressure Humidity
    00:00 +3°C° 0 mm 13 mps 687 mmHg 83%
    01:00 +2°C° 0 mm 12 mps 687 mmHg 84%
    02:00 +2°C° 0 mm 11 mps 687 mmHg 85%
    03:00 +2°C° 0 mm 10 mps 687 mmHg 85%
    04:00 +2°C° 0 mm 9 mps 687 mmHg 86%
    05:00 +2°C° 0 mm 8 mps 687 mmHg 87%
    06:00 +3°C° 0 mm 7 mps 688 mmHg 88%
    07:00 +3°C° 0 mm 6 mps 688 mmHg 89%
    08:00 +4°C° 0 mm 6 mps 688 mmHg 83%
    09:00 +5°C° 0 mm 5 mps 689 mmHg 77%
    10:00 +6°C° 0 mm 5 mps 689 mmHg 70%
    11:00 +7°C° 0 mm 4 mps 689 mmHg 61%
    12:00 +10°C° 0 mm 3 mps 689 mmHg 52%
    13:00 +11°C° 0 mm 3 mps 689 mmHg 43%
    14:00 +12°C° 0 mm 2 mps 688 mmHg 40%
    15:00 +13°C° 0 mm 1 mps 688 mmHg 37%
    16:00 +13°C° 0 mm 1 mps 688 mmHg 35%
    17:00 +12°C° 0 mm 1 mps 688 mmHg 41%
    18:00 +10°C° 0 mm 1 mps 687 mmHg 47%
    19:00 +8°C° 0 mm 0 mps 687 mmHg 54%
    20:00 +8°C° 0 mm 1 mps 687 mmHg 54%
    21:00 +8°C° 0 mm 1 mps 687 mmHg 55%
    22:00 +8°C° 0 mm 1 mps 687 mmHg 55%
    23:00 +7°C° 0 mm 2 mps 687 mmHg 56%
    Show more